GW5004 Weather Reports


time (UTC)temp
F
wind
direction
speed
knots
gust
knots
rain 1hr
in
rain 24hr
in
rain mn
in
humidity
%
barometer
mb
20260504174208 55 304 13.0 18.2 0.00 0.00 0.00 34 1016.2
20260504173704 54 283 10.4 13.0 0.00 0.00 0.00 37 1016.2
20260504173202 54 280 7.8 8.7 0.00 0.00 0.00 37 1016.3
20260504172658 55 269 12.2 13.9 0.00 0.00 0.00 39 1016.4
20260504172154 55 327 12.2 14.8 0.00 0.00 0.00 38 1016.2
20260504171651 54 295 15.6 20.0 0.00 0.00 0.00 38 1016.3
20260504171148 54 292 12.2 13.9 0.00 0.00 0.00 39 1016.3
20260504170644 54 319 8.7 13.0 0.00 0.00 0.00 41 1016.3
20260504170142 53 272 7.0 8.7 0.00 0.00 0.00 43 1016.6
20260504151028 49 225 7.0 8.7 0.00 0.00 0.00 54 1016.7
20260504150525 49 212 5.2 6.1 0.00 0.00 0.00 55 1016.7
20260504140956 48 221 4.3 5.2 0.00 0.00 0.00 60 1016.6
20260504140453 48 216 2.6 3.5 0.00 0.00 0.00 60 1016.7
20260504130417 46 246 2.6 3.5 0.00 0.00 0.00 62 1016.8
20260504110304 45 300 1.7 1.7 0.00 0.00 0.00 63 1017.1
20260504100222 46 351 5.2 7.0 0.00 0.00 0.00 60 1017.2
20260504081615 50 12 9.6 11.3 0.00 0.00 0.00 49 1016.3
20260504081111 50 13 9.6 9.6 0.00 0.00 0.00 48 1016.4
20260504080608 50 4 11.3 13.0 0.00 0.00 0.00 47 1016.2
20260504080104 51 12 10.4 12.2 0.00 0.00 0.00 47 1016.0
20260504050421 57 338 9.6 9.6 0.00 0.00 0.00 38 1010.9
20260504045918 57 341 8.7 11.3 0.00 0.00 0.00 37 1010.7
20260504045413 58 3 7.0 7.8 0.00 0.00 0.00 37 1010.5
20260504044910 57 8 8.7 9.6 0.00 0.00 0.00 37 1010.2
20260504044408 57 7 8.7 9.6 0.00 0.00 0.00 37 1010.3
20260504043905 58 9 6.1 7.0 0.00 0.00 0.00 36 1010.2
20260504043401 58 4 7.8 9.6 0.00 0.00 0.00 36 1010.3
20260504042859 58 10 4.3 5.2 0.00 0.00 0.00 37 1010.0
20260504042355 58 10 6.1 7.0 0.00 0.00 0.00 36 1009.9
20260504041852 58 3 5.2 7.0 0.00 0.00 0.00 36 1010.0
20260504041348 59 1 7.8 8.7 0.00 0.00 0.00 35 1009.9
20260504040844 59 3 9.6 11.3 0.00 0.00 0.00 35 1009.5
20260504040342 59 354 9.6 12.2 0.00 0.00 0.00 34 1009.6
20260504035837 59 3 8.7 8.7 0.00 0.00 0.00 34 1009.4
20260504035336 58 358 6.1 6.1 0.00 0.00 0.00 33 1009.4
20260504034832 59 5 5.2 6.1 0.00 0.00 0.00 33 1009.4
20260504034330 60 0 7.0 8.7 0.00 0.00 0.00 32 1009.3
20260504033826 61 11 8.7 9.6 0.00 0.00 0.00 31 1009.1
20260504033325 61 357 10.4 12.2 0.00 0.00 0.00 29 1009.0
20260504032821 61 341 6.1 6.1 0.00 0.00 0.00 28 1008.8
20260504032318 62 7 7.0 7.0 0.00 0.00 0.00 28 1008.2
20260504031815 62 351 7.0 7.8 0.00 0.00 0.00 27 1008.4
20260504031312 62 343 10.4 12.2 0.00 0.00 0.00 26 1008.4
20260504030808 59 334 4.3 5.2 0.00 0.00 0.00 28 1008.3
20260504030306 59 336 4.3 5.2 0.00 0.00 0.00 29 1008.0
20260504025801 60 329 3.5 3.5 0.00 0.00 0.00 29 1008.0
20260504025259 60 338 3.5 3.5 0.00 0.00 0.00 28 1008.0
20260504024755 61 345 4.3 5.2 0.00 0.00 0.00 28 1008.0
20260504024252 60 347 3.5 3.5 0.00 0.00 0.00 29 1008.0
20260504023749 62 353 3.5 3.5 0.00 0.00 0.00 28 1008.1
20260504023245 63 354 3.5 3.5 0.00 0.00 0.00 27 1008.0
20260504022741 64 354 4.3 5.2 0.00 0.00 0.00 26 1007.9
20260504022238 66 355 3.5 3.5 0.00 0.00 0.00 25 1008.0
20260504021735 66 355 5.2 5.2 0.00 0.00 0.00 24 1008.1
20260504021232 67 343 5.2 6.1 0.00 0.00 0.00 25 1008.1
20260504020729 67 356 5.2 6.1 0.00 0.00 0.00 24 1008.0
20260504020225 69 2 5.2 6.1 0.00 0.00 0.00 23 1007.9
20260504015722 69 359 7.0 7.8 0.00 0.00 0.00 22 1007.9
20260504015218 70 355 7.0 7.8 0.00 0.00 0.00 22 1007.9
20260504014714 70 347 7.0 7.8 0.00 0.00 0.00 22 1007.9
20260504014211 71 346 8.7 9.6 0.00 0.00 0.00 22 1008.0
20260504013709 71 334 7.8 8.7 0.00 0.00 0.00 21 1007.8
20260504013206 72 345 5.2 6.1 0.00 0.00 0.00 22 1007.9
20260504012702 72 344 5.2 7.0 0.00 0.00 0.00 22 1008.1
20260504012200 72 339 7.8 8.7 0.00 0.00 0.00 21 1007.7
20260504011657 73 311 8.7 9.6 0.00 0.00 0.00 21 1007.9
20260504011153 74 347 7.8 9.6 0.00 0.00 0.00 20 1007.9
20260504010649 74 332 5.2 7.0 0.00 0.00 0.00 20 1008.0
20260504010145 74 318 5.2 7.0 0.00 0.00 0.00 20 1008.0
20260504005642 74 322 9.6 13.0 0.00 0.00 0.00 19 1007.8
20260504005139 74 346 7.0 9.6 0.00 0.00 0.00 20 1008.0
20260504004637 75 287 7.0 7.8 0.00 0.00 0.00 18 1007.8
20260504004134 76 290 4.3 5.2 0.00 0.00 0.00 19 1007.9
20260504003630 75 337 3.5 5.2 0.00 0.00 0.00 18 1008.2
20260504003127 75 258 3.5 3.5 0.00 0.00 0.00 18 1008.2
20260504002624 75 322 5.2 7.0 0.00 0.00 0.00 18 1008.3
20260504002121 76 318 7.0 7.8 0.00 0.00 0.00 18 1008.2
20260504001619 76 301 8.7 11.3 0.00 0.00 0.00 17 1008.4
20260504001114 76 282 7.0 7.8 0.00 0.00 0.00 17 1008.4
20260504000612 76 308 8.7 11.3 0.00 0.00 0.00 18 1008.5
20260504000110 75 283 3.5 5.2 0.00 0.00 0.00 17 1008.3
20260503235608 76 306 5.2 6.1 0.00 0.00 0.00 17 1008.3
20260503235104 76 289 8.7 9.6 0.00 0.00 0.00 17 1008.5
20260503234602 76 297 6.1 7.0 0.00 0.00 0.00 17 1008.7
20260503234100 76 302 5.2 6.1 0.00 0.00 0.00 17 1008.5
20260503233556 76 293 6.1 7.0 0.00 0.00 0.00 17 1008.8
20260503233052 77 251 1.7 1.7 0.00 0.00 0.00 17 1008.4
20260503232549 76 276 6.1 8.7 0.00 0.00 0.00 17 1008.7
20260503232047 76 298 6.1 7.0 0.00 0.00 0.00 17 1008.9
20260503231545 76 246 5.2 7.0 0.00 0.00 0.00 17 1008.9
20260503231041 76 294 7.8 7.8 0.00 0.00 0.00 17 1008.9
20260503230537 77 239 6.1 7.8 0.00 0.00 0.00 17 1008.8
20260503230035 76 236 5.2 7.0 0.00 0.00 0.00 17 1008.9
20260503225532 76 252 9.6 12.2 0.00 0.00 0.00 17 1009.0
20260503225027 76 298 7.8 11.3 0.00 0.00 0.00 17 1009.1
20260503224525 76 251 3.5 3.5 0.00 0.00 0.00 17 1009.0
20260503224022 76 271 5.2 7.0 0.00 0.00 0.00 17 1009.3
20260503223520 76 234 10.4 13.0 0.00 0.00 0.00 17 1009.2
20260503223015 76 279 5.2 6.1 0.00 0.00 0.00 17 1009.1
20260503222514 75 238 3.5 5.2 0.00 0.00 0.00 17 1009.1
20260503222012 76 305 7.8 9.6 0.00 0.00 0.00 17 1009.5
20260503221510 75 287 9.6 11.3 0.00 0.00 0.00 16 1009.5
20260503221007 77 280 11.3 13.9 0.00 0.00 0.00 17 1009.6
20260503220503 75 256 4.3 7.8 0.00 0.00 0.00 18 1009.5
20260503215959 75 286 7.0 7.8 0.00 0.00 0.00 17 1009.5
20260503215457 75 255 8.7 9.6 0.00 0.00 0.00 18 1009.4
20260503214954 76 256 9.6 9.6 0.00 0.00 0.00 17 1009.8
20260503214452 75 229 2.6 2.6 0.00 0.00 0.00 18 1009.8
20260503213949 77 290 6.1 7.0 0.00 0.00 0.00 17 1010.0
20260503213447 76 323 5.2 6.1 0.00 0.00 0.00 18 1009.9
20260503212943 75 287 5.2 6.1 0.00 0.00 0.00 17 1010.1
20260503212441 74 260 5.2 7.0 0.00 0.00 0.00 18 1010.2
20260503211938 74 297 7.8 8.7 0.00 0.00 0.00 18 1010.2
20260503211435 74 281 7.8 8.7 0.00 0.00 0.00 18 1010.4
20260503210930 75 271 7.8 9.6 0.00 0.00 0.00 18 1010.5
20260503210427 75 262 5.2 7.0 0.00 0.00 0.00 19 1010.4
20260503205922 74 300 5.2 6.1 0.00 0.00 0.00 18 1010.5
20260503205420 75 286 6.1 7.8 0.00 0.00 0.00 17 1010.7
20260503204915 74 298 11.3 12.2 0.00 0.00 0.00 18 1010.6
20260503204413 74 271 4.3 7.0 0.00 0.00 0.00 19 1010.9
20260503203910 74 244 4.3 6.1 0.00 0.00 0.00 18 1011.1
20260503203407 74 246 7.8 11.3 0.00 0.00 0.00 18 1011.0
20260503202904 73 284 9.6 11.3 0.00 0.00 0.00 18 1011.3
20260503202402 73 255 10.4 11.3 0.00 0.00 0.00 18 1011.2
20260503201900 75 273 7.8 8.7 0.00 0.00 0.00 18 1011.2
20260503201357 73 262 6.1 7.8 0.00 0.00 0.00 19 1011.2
20260503200855 73 237 7.8 8.7 0.00 0.00 0.00 19 1011.2
20260503200350 72 253 5.2 7.0 0.00 0.00 0.00 19 1011.2
20260503195848 73 298 7.8 9.6 0.00 0.00 0.00 19 1011.5
20260503195344 73 247 5.2 6.1 0.00 0.00 0.00 20 1011.5
20260503194841 73 238 10.4 12.2 0.00 0.00 0.00 19 1011.6
20260503194337 73 310 7.0 7.8 0.00 0.00 0.00 20 1011.6
20260503193834 72 272 9.6 11.3 0.00 0.00 0.00 20 1011.6
20260503193330 73 293 7.8 8.7 0.00 0.00 0.00 20 1011.7
20260503192826 73 259 2.6 2.6 0.00 0.00 0.00 21 1011.8
20260503192321 73 248 9.6 11.3 0.00 0.00 0.00 21 1011.8
20260503191818 73 253 4.3 5.2 0.00 0.00 0.00 21 1011.8
20260503191315 72 248 6.1 7.8 0.00 0.00 0.00 22 1012.2
20260503190812 73 243 3.5 3.5 0.00 0.00 0.00 23 1011.9
20260503190309 72 254 7.8 9.6 0.00 0.00 0.00 21 1011.9
20260503185806 71 277 10.4 11.3 0.00 0.00 0.00 22 1012.2
20260503185301 72 261 9.6 13.0 0.00 0.00 0.00 23 1012.2
20260503184801 71 246 5.2 7.8 0.00 0.00 0.00 24 1012.4
20260503184258 70 271 5.2 6.1 0.00 0.00 0.00 23 1012.5
20260503183754 71 253 4.3 5.2 0.00 0.00 0.00 23 1012.5
20260503183252 71 245 5.2 6.1 0.00 0.00 0.00 25 1012.6
20260503182749 70 259 7.8 8.7 0.00 0.00 0.00 24 1012.9
20260503182248 71 296 8.7 12.2 0.00 0.00 0.00 25 1012.9
20260503181744 71 225 3.5 3.5 0.00 0.00 0.00 24 1012.9
20260503181241 70 280 4.3 5.2 0.00 0.00 0.00 25 1012.9
20260503180738 69 279 5.2 6.1 0.00 0.00 0.00 24 1013.0
20260503180236 69 309 8.7 9.6 0.00 0.00 0.00 24 1013.0
20260503175732 70 289 7.8 11.3 0.00 0.00 0.00 25 1013.0
20260503175230 70 242 6.1 7.8 0.00 0.00 0.00 24 1013.0
20260503174726 70 297 7.0 7.8 0.00 0.00 0.00 25 1013.4